This is the latest recevied weather packets stored in our database for station/object W8CEN. If no packets are shown the sender has not sent any weather packets the latest 10 day(s).
| Time | Temp. | Humidity | Pressure | Rain* | Wind** | Luminosity | Snow |
|---|---|---|---|---|---|---|---|
| 1777777089 | 5.56° C | 72% | 995.6 hPa | 0 mm | - | 0 W/m² | - |
| 1777776787 | 5.56° C | 70% | 995.7 hPa | 0 mm | - | 0 W/m² | - |
| 1777776484 | 5.56° C | 69% | 995.5 hPa | 0 mm | - | 0 W/m² | - |
| 1777776180 | 5.56° C | 68% | 995.6 hPa | 0 mm | - | 0 W/m² | - |
| 1777775878 | 5.56° C | 68% | 995.6 hPa | 0 mm | - | 0 W/m² | - |
| 1777775575 | 5.56° C | 70% | 995.8 hPa | 0 mm | - | 0 W/m² | - |
| 1777775271 | 5.56° C | 70% | 995.7 hPa | 0 mm | - | 0 W/m² | - |
| 1777774971 | 5.56° C | 68% | 995.7 hPa | 0 mm | - | 0 W/m² | - |
| 1777774668 | 5.56° C | 68% | 995.6 hPa | 0 mm | - | 0 W/m² | - |
| 1777774364 | 5.56° C | 68% | 995.5 hPa | 0 mm | - | 0 W/m² | - |
| 1777774062 | 5.56° C | 69% | 995.7 hPa | 0 mm | - | 0 W/m² | - |
| 1777773759 | 6.11° C | 68% | 995.9 hPa | 0 mm | - | 0 W/m² | - |
| 1777773455 | 6.11° C | 69% | 995.6 hPa | 0 mm | - | 0 W/m² | - |
| 1777773152 | 6.11° C | 66% | 995.6 hPa | 0 mm | - | 0 W/m² | - |
| 1777772848 | 6.11° C | 65% | 995.6 hPa | 0 mm | - | 0 W/m² | - |
| 1777771941 | 6.11° C | 65% | 995.7 hPa | 0 mm | - | 0 W/m² | - |
| 1777771337 | 6.11° C | 63% | 995.3 hPa | 0 mm | - | 0 W/m² | - |
| 1777771032 | 6.11° C | 62% | 995.5 hPa | 0 mm | - | 0 W/m² | - |
| 1777770729 | 6.67° C | 62% | 995.5 hPa | 0 mm | - | 0 W/m² | - |
| 1777770425 | 6.67° C | 64% | 995.3 hPa | 0 mm | - | 0 W/m² | - |
| 1777768608 | 7.22° C | 58% | 995.4 hPa | 0 mm | - | 1 W/m² | - |
| 1777768305 | 7.22° C | 57% | 995.4 hPa | 0 mm | - | 2 W/m² | - |
| 1777767698 | 7.78° C | 55% | 995.3 hPa | 0 mm | - | 4 W/m² | - |
| 1777767394 | 7.78° C | 56% | 995.4 hPa | 0 mm | - | 6 W/m² | - |
| 1777767091 | 7.78° C | 55% | 995.4 hPa | 0 mm | - | 8 W/m² | - |
* Rain latest hour (hover to see other rain measurements)
** Current wind speed in m/s (hover to see current wind gust speed)